Location: Condor
(52.3263°N, 114.5541°W)
Time: 11:33:36
(UTC+00:00)

SO-50 - Pass Details

Date: 09 December 2023
Orbit: 608 x 660 km, 64.6° (Epoch: 05 March)

Event Time Altitude Azimuth Distance (km) Brightness Sun altitude
Exits shadow 11:17:22 10° 40° (NE) 2,026 ? -38.0°
Drops below altitude 10° 11:17:25 10° 40° (NE) 2,044 ? -38.0°
Sets 11:19:43 0° 44° (NE) 2,948 ? -37.7°
